Overview Statistics Trail Chart Weather Telemetry Raw packets
 

This is the latest recevied weather packets stored in our database for station/object KN6WGU. If no packets are shown the sender has not sent any weather packets the latest 10 day(s).

<< 93 94 95 96 97 98 99 >>
Time Temp. Humidity Pressure Rain* Wind** Luminosity Snow
1787919572 21.11° C 75% 1013.4 hPa 0 mm - 67 W/m² -
1787919268 21.11° C 77% 1013.4 hPa 0 mm - 58 W/m² -
1787918963 21.11° C 77% 1013.2 hPa 0 mm - 53 W/m² -
1787918663 21.11° C 77% 1013.2 hPa 0 mm - 39 W/m² -
1787918361 20.56° C 77% 1013 hPa 0 mm - 38 W/m² -
1787918056 20.56° C 78% 1012.9 hPa 0 mm - 39 W/m² -
1787917751 20.56° C 79% 1012.9 hPa 0 mm - 28 W/m² -
1787917447 20.56° C 80% 1012.8 hPa 0 mm - 25 W/m² -
1787917142 20° C 82% 1012.8 hPa 0 mm - 26 W/m² -
1787916831 20° C 83% 1012.5 hPa 0 mm - 21 W/m² -
1787916530 20° C 84% 1012.5 hPa 0 mm - 18 W/m² -
1787916230 20° C 83% 1012.6 hPa 0 mm - 16 W/m² -
1787915921 20° C 84% 1012.3 hPa 0 mm - 13 W/m² -
1787915616 20° C 83% 1012.2 hPa 0 mm - 11 W/m² -
1787915316 20° C 83% 1012.2 hPa 0 mm - 8 W/m² -
1787915011 20° C 83% 1012.2 hPa 0 mm - 6 W/m² -
1787914710 20° C 83% 1011.9 hPa 0 mm - 4 W/m² -
1787914405 20° C 83% 1011.9 hPa 0 mm - 3 W/m² -
1787914100 20° C 83% 1011.9 hPa 0 mm - 2 W/m² -
1787913798 20° C 83% 1012.1 hPa 0 mm - 1 W/m² -
1787913494 20° C 83% 1012.1 hPa 0 mm - 0 W/m² -
1787913188 20° C 83% 1011.8 hPa 0 mm - 0 W/m² -
1787912887 20° C 82% 1011.9 hPa 0 mm - 0 W/m² -
1787912587 20.56° C 82% 1011.7 hPa 0 mm - 0 W/m² -
1787912285 20° C 82% 1011.7 hPa 0 mm - 0 W/m² -

* Rain latest hour (hover to see other rain measurements)
** Current wind speed in m/s (hover to see current wind gust speed)